This demonstration page uses our WeatherBlox Daily Observations layout. Learn more.

Left ArrowRight Arrow

53.62937, 11.41316

Hourly Observations for June 14, 2015

Temp ( °F °C ) Dew Point ( °F °C ) Humidity (%) Winds ( mph kmh ) Pressure ( in mb ) Visibility ( mi km ) Precip ( " mm )
6:20 am 06:20 Cloudy 59 15 54 12 82 82 WSW 12 19 29.74 1007 30 48 N/A
6:50 am 06:50 Cloudy 59 15 54 12 82 82 WSW 12 19 29.74 1007 30 48 N/A
7:20 am 07:20 Cloudy 59 15 54 12 82 82 WSW 12 19 29.74 1007 30 48 N/A
7:50 am 07:50 Cloudy 59 15 54 12 82 82 WSW 12 19 29.74 1007 30 48 N/A
8:50 am 08:50 Cloudy 59 15 55 13 88 88 WSW 13 20 29.77 1008 30 48 N/A
9:20 am 09:20 Cloudy 59 15 55 13 88 88 WSW 13 20 29.77 1008 30 48 N/A
9:50 am 09:50 Cloudy 59 15 57 14 94 94 WSW 10 17 29.77 1008 30 48 N/A
10:20 am 10:20 Cloudy 59 15 57 14 94 94 WSW 12 19 29.80 1009 30 48 N/A
10:41 am 10:41 Cloudy 59 15 55 13 88 88 WNW 9 15 29.80 1009 30 48 N/A
10:50 am 10:50 Cloudy 59 15 55 13 88 88 WNW 8 13 29.80 1009 30 48 N/A
11:20 am 11:20 Cloudy 59 15 55 13 88 88 NW 8 13 29.80 1009 30 48 N/A
11:50 am 11:50 Cloudy 57 14 54 12 88 88 WNW 8 13 29.83 1010 30 48 N/A
12:20 pm 12:20 Cloudy 57 14 54 12 88 88 WNW 8 13 29.83 1010 30 48 N/A
12:50 pm 12:50 Cloudy 61 16 54 12 77 77 W 6 9 29.83 1010 30 48 N/A
1:20 pm 13:20 Cloudy 61 16 54 12 77 77 WNW 8 13 29.83 1010 30 48 N/A
1:50 pm 13:50 Cloudy 61 16 54 12 77 77 W 9 15 29.85 1011 30 48 N/A
2:20 pm 14:20 Mostly Cloudy 66 19 54 12 64 64 NW 8 13 29.83 1010 30 48 N/A
2:50 pm 14:50 Mostly Cloudy 64 18 50 10 60 60 WNW 9 15 29.83 1010 30 48 N/A
3:20 pm 15:20 Mostly Cloudy 66 19 50 10 56 56 W 8 13 29.83 1010 30 48 N/A
3:50 pm 15:50 Mostly Cloudy 66 19 50 10 56 56 NNW 7 11 29.83 1010 30 48 N/A
4:20 pm 16:20 Mostly Cloudy 66 19 52 11 60 60 WNW 7 11 29.83 1010 30 48 N/A
4:50 pm 16:50 Mostly Cloudy 66 19 52 11 60 60 WNW 7 11 29.83 1010 30 48 N/A
5:20 pm 17:20 Mostly Cloudy 64 18 52 11 64 64 WNW 7 11 29.83 1010 30 48 N/A
5:50 pm 17:50 Mostly Cloudy 64 18 50 10 60 60 NW 7 11 29.83 1010 30 48 N/A
6:20 pm 18:20 Mostly Cloudy 64 18 50 10 60 60 WNW 8 13 29.83 1010 30 48 N/A
6:50 pm 18:50 Mostly Cloudy 64 18 50 10 60 60 NW 9 15 29.83 1010 30 48 N/A

Powered by AerisWeather